,,PA_Meas_PMT16A,,PR_Meas_QMR101_102,,RH_Meas_QMH101,,SR_Meas_QMS101,,TA_Meas_QMH101,,GenWind,,GenWind,
time,status,PA,status,PR,status,RH,status,SR,status,TA,status,DirAvg,status,SpdAvg,
2011-12-15, 00:00:05,VALID,917.407,VALID,0,VALID,97.7627,VALID,0,VALID,20.2489,VALID,23,VALID,0,
2011-12-15, 00:01:05,VALID,917.377,VALID,0,VALID,97.7474,VALID,0,VALID,20.2278,VALID,23,VALID,0.353516,
2011-12-15, 00:02:05,VALID,917.367,VALID,0,VALID,97.7322,VALID,0,VALID,20.2083,VALID,23,VALID,0.219531,
2011-12-15, 00:03:05,VALID,917.388,VALID,0,VALID,97.7398,VALID,0.107441,VALID,20.2068,VALID,23,VALID,0,
2011-12-15, 00:04:05,VALID,917.369,VALID,0,VALID,97.7551,VALID,0.107441,VALID,20.2473,VALID,23,VALID,0,
2011-12-15, 00:05:05,VALID,917.394,VALID,0,VALID,97.7779,VALID,0.107441,VALID,20.2473,VALID,23,VALID,0,
2011-12-15, 00:06:05,VALID,917.378,VALID,0,VALID,97.7322,VALID,0.107441,VALID,20.2083,VALID,23,VALID,0,
2011-12-15, 00:07:05,VALID,917.344,VALID,0,VALID,97.7093,VALID,0.107441,VALID,20.1678,VALID,23,VALID,0,
2011-12-15, 00:08:05,VALID,917.373,VALID,0,VALID,97.7169,VALID,0.107441,VALID,20.1693,VALID,23,VALID,0,
2011-12-15, 00:09:05,VALID,917.32,VALID,0,VALID,97.7246,VALID,0,VALID,20.1303,VALID,23,VALID,0,
2011-12-15, 00:10:05,VALID,917.333,VALID,0,VALID,97.7246,VALID,0,VALID,20.1303,VALID,23,VALID,0,
2011-12-15, 00:11:05,VALID,917.325,VALID,0,VALID,97.7551,VALID,0.107441,VALID,20.1498,VALID,23,VALID,0,
2011-12-15, 00:12:05,VALID,917.283,VALID,0,VALID,97.7551,VALID,0.107441,VALID,20.1483,VALID,23,VALID,0,
2011-12-15, 00:13:05,VALID,917.29,VALID,0,VALID,97.7932,VALID,0.107441,VALID,20.1693,VALID,23,VALID,0,
2011-12-15, 00:14:04,VALID,917.298,VALID,0,VALID,97.7932,VALID,0.107441,VALID,20.1888,VALID,23,VALID,0,
2011-12-15, 00:15:04,VALID,917.276,VALID,0,VALID,97.8084,VALID,0.107441,VALID,20.1693,VALID,23,VALID,0,
2011-12-15, 00:16:04,VALID,917.287,VALID,0,VALID,97.8084,VALID,0.107441,VALID,20.1873,VALID,23,VALID,0,
2011-12-15, 00:17:04,VALID,917.228,VALID,0,VALID,97.7932,VALID,0.107441,VALID,20.2083,VALID,23,VALID,0,
2011-12-15, 00:18:04,VALID,917.244,VALID,0,VALID,97.7932,VALID,0.107441,VALID,20.1873,VALID,23,VALID,0,
2011-12-15, 00:19:04,VALID,917.248,VALID,0,VALID,97.7932,VALID,0.107441,VALID,20.2083,VALID,23,VALID,0,
2011-12-15, 00:20:04,VALID,917.251,VALID,0,VALID,97.7856,VALID,0,VALID,20.1873,VALID,23,VALID,0,
2011-12-15, 00:21:04,VALID,917.21,VALID,0,VALID,97.8008,VALID,0.214882,VALID,20.1678,VALID,23,VALID,0,
2011-12-15, 00:22:04,VALID,917.216,VALID,0,VALID,97.7779,VALID,0.107441,VALID,20.1693,VALID,23,VALID,0,
2011-12-15, 00:23:04,VALID,917.205,VALID,0,VALID,97.7703,VALID,0.107441,VALID,20.1888,VALID,23,VALID,0,
2011-12-15, 00:24:04,VALID,917.179,VALID,0,VALID,97.7627,VALID,0.107441,VALID,20.1693,VALID,23,VALID,0,
2011-12-15, 00:25:04,VALID,917.166,VALID,0,VALID,97.7856,VALID,0.107441,VALID,20.1288,VALID,23,VALID,0,
2011-12-15, 00:26:04,VALID,917.154,VALID,0,VALID,97.7779,VALID,0.107441,VALID,20.1498,VALID,23,VALID,0,
2011-12-15, 00:27:04,VALID,917.131,VALID,0,VALID,97.7703,VALID,0.107441,VALID,20.1303,VALID,23,VALID,0.401172,
2011-12-15, 00:28:04,VALID,917.103,VALID,0,VALID,97.7703,VALID,0.107441,VALID,20.1093,VALID,23,VALID,0.364844,
2011-12-15, 00:29:04,VALID,917.108,VALID,0,VALID,97.7551,VALID,0.107441,VALID,20.0913,VALID,23,VALID,0.154297,
2011-12-15, 00:30:04,VALID,917.076,VALID,0,VALID,97.7551,VALID,0.107441,VALID,20.0913,VALID,23,VALID,0.252734,
2011-12-15, 00:31:04,VALID,917.034,VALID,0,VALID,97.7779,VALID,0.107441,VALID,20.1108,VALID,23,VALID,0.455078,
2011-12-15, 00:32:04,VALID,917.066,VALID,0,VALID,97.7779,VALID,0.107441,VALID,20.1108,VALID,23,VALID,0.201953,
2011-12-15, 00:33:04,VALID,917.069,VALID,0,VALID,97.7856,VALID,0,VALID,20.0523,VALID,23,VALID,0.405078,
2011-12-15, 00:34:04,VALID,917.013,VALID,0,VALID,97.7779,VALID,0,VALID,20.0718,VALID,23,VALID,0.257813,
2011-12-15, 00:35:04,VALID,916.988,VALID,0,VALID,97.7932,VALID,0,VALID,20.0523,VALID,23,VALID,0.104297,
2011-12-15, 00:36:04,VALID,916.998,VALID,0,VALID,97.7856,VALID,0,VALID,20.0328,VALID,23,VALID,0.283203,
2011-12-15, 00:37:04,VALID,916.973,VALID,0,VALID,97.7779,VALID,0,VALID,20.0343,VALID,23,VALID,0.0804688,
2011-12-15, 00:38:04,VALID,917.003,VALID,0,VALID,97.7627,VALID,0,VALID,20.0133,VALID,23,VALID,0.160547,
2011-12-15, 00:39:04,VALID,916.971,VALID,0,VALID,97.7703,VALID,0,VALID,20.0148,VALID,23,VALID,0.499219,
2011-12-15, 00:40:04,VALID,916.978,VALID,0,VALID,97.7856,VALID,0,VALID,20.0133,VALID,23,VALID,0.0796875,
2011-12-15, 00:41:04,VALID,916.973,VALID,0,VALID,97.7703,VALID,0,VALID,19.9938,VALID,23,VALID,0,
2011-12-15, 00:42:04,VALID,916.944,VALID,0,VALID,97.7703,VALID,0,VALID,19.9938,VALID,23,VALID,0,
2011-12-15, 00:43:04,VALID,916.942,VALID,0,VALID,97.7856,VALID,0,VALID,20.0133,VALID,23,VALID,0,
2011-12-15, 00:44:04,VALID,916.946,VALID,0,VALID,97.8008,VALID,0,VALID,20.0133,VALID,23,VALID,0,
2011-12-15, 00:45:04,VALID,916.932,VALID,0,VALID,97.816,VALID,0,VALID,20.0148,VALID,23,VALID,0,
2011-12-15, 00:46:04,VALID,916.921,VALID,0,VALID,97.7703,VALID,0,VALID,20.0358,VALID,24,VALID,0,
2011-12-15, 00:47:04,VALID,916.892,VALID,0,VALID,97.8084,VALID,0,VALID,20.0148,VALID,23,VALID,0,
2011-12-15, 00:48:04,VALID,916.886,VALID,0,VALID,97.8237,VALID,0.107441,VALID,20.0133,VALID,23,VALID,0,
2011-12-15, 00:49:04,VALID,916.856,VALID,0,VALID,97.816,VALID,0.107441,VALID,20.0328,VALID,23,VALID,0,
2011-12-15, 00:50:04,VALID,916.852,VALID,0,VALID,97.816,VALID,0.107441,VALID,20.0328,VALID,23,VALID,0,
2011-12-15, 00:51:04,VALID,916.854,VALID,0,VALID,97.8465,VALID,0.107441,VALID,20.0313,VALID,23,VALID,0,
2011-12-15, 00:52:04,VALID,916.836,VALID,0,VALID,97.8465,VALID,0.107441,VALID,20.0313,VALID,23,VALID,0,
2011-12-15, 00:53:04,VALID,916.803,VALID,0,VALID,97.8542,VALID,0,VALID,20.0718,VALID,23,VALID,0,
2011-12-15, 00:54:04,VALID,916.821,VALID,0,VALID,97.8313,VALID,0.107441,VALID,20.0718,VALID,23,VALID,0,
2011-12-15, 00:55:04,VALID,916.777,VALID,0,VALID,97.8313,VALID,0,VALID,20.0718,VALID,23,VALID,0,
2011-12-15, 00:56:04,VALID,916.806,VALID,0,VALID,97.8389,VALID,0,VALID,20.0313,VALID,23,VALID,0,
2011-12-15, 00:57:04,VALID,916.748,VALID,0,VALID,97.8465,VALID,0.107441,VALID,20.0523,VALID,23,VALID,0,
2011-12-15, 00:58:04,VALID,916.76,VALID,0,VALID,97.8465,VALID,0.107441,VALID,20.0718,VALID,23,VALID,0,
2011-12-15, 00:59:04,VALID,916.747,VALID,0,VALID,97.8313,VALID,0.107441,VALID,20.0523,VALID,23,VALID,0,
2011-12-15, 01:00:04,VALID,916.741,VALID,0,VALID,97.8389,VALID,0.107441,VALID,20.0328,VALID,23,VALID,0,
2011-12-15, 01:01:04,VALID,916.737,VALID,0,VALID,97.8237,VALID,0.107441,VALID,20.0328,VALID,23,VALID,0,
2011-12-15, 01:02:04,VALID,916.695,VALID,0,VALID,97.8313,VALID,0.107441,VALID,20.0328,VALID,23,VALID,0,
2011-12-15, 01:03:04,VALID,916.705,VALID,0,VALID,97.8237,VALID,0,VALID,20.0538,VALID,23,VALID,0,
2011-12-15, 01:04:04,VALID,916.658,VALID,0,VALID,97.8389,VALID,0,VALID,20.0538,VALID,23,VALID,0,
2011-12-15, 01:05:04,VALID,916.672,VALID,0,VALID,97.8542,VALID,0,VALID,20.0733,VALID,23,VALID,0,
2011-12-15, 01:06:04,VALID,916.627,VALID,0,VALID,97.8542,VALID,0,VALID,20.0733,VALID,23,VALID,0,
2011-12-15, 01:07:04,VALID,916.611,VALID,0,VALID,97.8542,VALID,0,VALID,20.0733,VALID,23,VALID,0,
2011-12-15, 01:08:04,VALID,916.608,VALID,0,VALID,97.8542,VALID,0,VALID,20.0928,VALID,23,VALID,0,
2011-12-15, 01:09:04,VALID,916.578,VALID,0,VALID,97.8542,VALID,0,VALID,20.0733,VALID,23,VALID,0,
2011-12-15, 01:10:04,VALID,916.584,VALID,0,VALID,97.8389,VALID,0,VALID,20.0733,VALID,23,VALID,0,
2011-12-15, 01:11:04,VALID,916.541,VALID,0,VALID,97.8389,VALID,0,VALID,20.0928,VALID,23,VALID,0,
2011-12-15, 01:12:04,VALID,916.547,VALID,0,VALID,97.816,VALID,0,VALID,20.0733,VALID,23,VALID,0,
2011-12-15, 01:13:04,VALID,916.505,VALID,0,VALID,97.8542,VALID,0,VALID,20.0733,VALID,23,VALID,0,
2011-12-15, 01:14:04,VALID,916.505,VALID,0,VALID,97.8389,VALID,0,VALID,20.0928,VALID,23,VALID,0,
2011-12-15, 01:15:04,VALID,916.483,VALID,0,VALID,97.8313,VALID,0,VALID,20.0928,VALID,23,VALID,0,
2011-12-15, 01:16:04,VALID,916.497,VALID,0,VALID,97.7856,VALID,0,VALID,20.0538,VALID,23,VALID,0,
2011-12-15, 01:17:04,VALID,916.456,VALID,0,VALID,97.8084,VALID,0,VALID,20.0343,VALID,23,VALID,0,
2011-12-15, 01:18:04,VALID,916.444,VALID,0,VALID,97.7932,VALID,0,VALID,20.0343,VALID,23,VALID,0,
2011-12-15, 01:19:04,VALID,916.432,VALID,0,VALID,97.8084,VALID,0,VALID,20.0343,VALID,23,VALID,0,
2011-12-15, 01:20:04,VALID,916.433,VALID,0,VALID,97.7779,VALID,0,VALID,20.0148,VALID,23,VALID,0,
2011-12-15, 01:21:04,VALID,916.412,VALID,0,VALID,97.7551,VALID,0,VALID,19.9758,VALID,23,VALID,0,
2011-12-15, 01:22:04,VALID,916.386,VALID,0,VALID,97.7398,VALID,0,VALID,19.9173,VALID,23,VALID,0,
2011-12-15, 01:23:04,VALID,916.366,VALID,0,VALID,97.7474,VALID,0,VALID,19.8783,VALID,23,VALID,0,
2011-12-15, 01:24:04,VALID,916.337,VALID,0,VALID,97.7703,VALID,0,VALID,19.8588,VALID,23,VALID,0,
2011-12-15, 01:25:04,VALID,916.337,VALID,0,VALID,97.7932,VALID,0,VALID,19.8588,VALID,23,VALID,0,
2011-12-15, 01:26:04,VALID,916.315,VALID,0,VALID,97.8084,VALID,0,VALID,19.8198,VALID,23,VALID,0,
2011-12-15, 01:27:04,VALID,916.301,VALID,0,VALID,97.8389,VALID,0,VALID,19.8198,VALID,23,VALID,0,
2011-12-15, 01:28:04,VALID,916.269,VALID,0,VALID,97.8465,VALID,0,VALID,19.8588,VALID,23,VALID,0,
2011-12-15, 01:29:04,VALID,916.245,VALID,0,VALID,97.8694,VALID,0,VALID,19.8588,VALID,23,VALID,0,
2011-12-15, 01:30:04,VALID,916.266,VALID,0,VALID,97.9152,VALID,0,VALID,19.8783,VALID,23,VALID,0,
2011-12-15, 01:31:04,VALID,916.242,VALID,0,VALID,97.8923,VALID,0,VALID,19.8783,VALID,23,VALID,0,
2011-12-15, 01:32:04,VALID,916.243,VALID,0,VALID,97.8465,VALID,0,VALID,19.8588,VALID,23,VALID,0,
2011-12-15, 01:33:04,VALID,916.246,VALID,0,VALID,97.816,VALID,0,VALID,19.8393,VALID,23,VALID,0,
2011-12-15, 01:34:04,VALID,916.212,VALID,0,VALID,97.8465,VALID,0,VALID,19.8588,VALID,23,VALID,0,
2011-12-15, 01:35:04,VALID,916.198,VALID,0,VALID,97.8618,VALID,0,VALID,19.8393,VALID,23,VALID,0,
2011-12-15, 01:36:04,VALID,916.199,VALID,0,VALID,97.8465,VALID,0,VALID,19.8393,VALID,23,VALID,0,
2011-12-15, 01:37:04,VALID,916.182,VALID,0,VALID,97.8847,VALID,0,VALID,19.8393,VALID,23,VALID,0,
2011-12-15, 01:38:04,VALID,916.146,VALID,0,VALID,97.8542,VALID,0,VALID,19.8198,VALID,23,VALID,0,
2011-12-15, 01:39:04,VALID,916.143,VALID,0,VALID,97.9075,VALID,0,VALID,19.8393,VALID,23,VALID,0,
2011-12-15, 01:40:04,VALID,916.124,VALID,0,VALID,97.9075,VALID,0,VALID,19.8393,VALID,23,VALID,0,
2011-12-15, 01:41:04,VALID,916.112,VALID,0,VALID,97.8923,VALID,0,VALID,19.8603,VALID,23,VALID,0,
2011-12-15, 01:42:04,VALID,916.093,VALID,0,VALID,97.8694,VALID,0,VALID,19.8393,VALID,23,VALID,0,
2011-12-15, 01:43:04,VALID,916.079,VALID,0,VALID,97.8618,VALID,0,VALID,19.8198,VALID,23,VALID,0,
2011-12-15, 01:44:04,VALID,916.076,VALID,0,VALID,97.8847,VALID,0,VALID,19.8003,VALID,23,VALID,0,
2011-12-15, 01:45:04,VALID,916.062,VALID,0,VALID,97.8923,VALID,0,VALID,19.8408,VALID,23,VALID,0,
2011-12-15, 01:46:04,VALID,916.063,VALID,0,VALID,97.9075,VALID,0,VALID,19.8003,VALID,23,VALID,0,
2011-12-15, 01:47:04,VALID,916.056,VALID,0,VALID,97.8847,VALID,0,VALID,19.8003,VALID,23,VALID,0,
2011-12-15, 01:48:04,VALID,916.044,VALID,0,VALID,97.8694,VALID,0,VALID,19.7808,VALID,23,VALID,0,
2011-12-15, 01:49:04,VALID,916.051,VALID,0,VALID,97.877,VALID,0,VALID,19.7808,VALID,23,VALID,0,
2011-12-15, 01:50:04,VALID,916.019,VALID,0,VALID,97.8847,VALID,0,VALID,19.7613,VALID,23,VALID,0,
2011-12-15, 01:51:04,VALID,915.988,VALID,0,VALID,97.8465,VALID,0,VALID,19.7418,VALID,23,VALID,0,
2011-12-15, 01:52:04,VALID,915.975,VALID,0,VALID,97.8313,VALID,0,VALID,19.7193,VALID,23,VALID,0,
2011-12-15, 01:53:04,VALID,915.973,VALID,0,VALID,97.8694,VALID,0.107441,VALID,19.7208,VALID,23,VALID,0,
2011-12-15, 01:54:04,VALID,915.956,VALID,0,VALID,97.9075,VALID,0,VALID,19.7208,VALID,23,VALID,0,
2011-12-15, 01:55:04,VALID,915.953,VALID,0,VALID,97.8999,VALID,0,VALID,19.7208,VALID,23,VALID,0,
2011-12-15, 01:56:04,VALID,915.915,VALID,0,VALID,97.8999,VALID,0,VALID,19.7208,VALID,23,VALID,0,
2011-12-15, 01:57:04,VALID,915.913,VALID,0,VALID,97.8694,VALID,0.107441,VALID,19.7208,VALID,23,VALID,0,
2011-12-15, 01:58:04,VALID,915.936,VALID,0,VALID,97.8847,VALID,0.107441,VALID,19.7013,VALID,23,VALID,0,
2011-12-15, 01:59:04,VALID,915.88,VALID,0,VALID,97.9228,VALID,0,VALID,19.6818,VALID,23,VALID,0,
2011-12-15, 02:00:04,VALID,915.874,VALID,0,VALID,97.8923,VALID,0,VALID,19.6818,VALID,23,VALID,0,
2011-12-15, 02:01:04,VALID,915.891,VALID,0,VALID,97.9075,VALID,0.107441,VALID,19.7013,VALID,23,VALID,0,
2011-12-15, 02:02:04,VALID,915.884,VALID,0,VALID,97.9075,VALID,0,VALID,19.7013,VALID,23,VALID,0,
2011-12-15, 02:03:04,VALID,915.869,VALID,0,VALID,97.9152,VALID,0,VALID,19.6833,VALID,23,VALID,0,
2011-12-15, 02:04:04,VALID,915.824,VALID,0,VALID,97.9533,VALID,0,VALID,19.7238,VALID,23,VALID,0,
2011-12-15, 02:05:04,VALID,915.825,VALID,0,VALID,97.9533,VALID,0,VALID,19.7223,VALID,23,VALID,0,
2011-12-15, 02:06:04,VALID,915.805,VALID,0,VALID,97.9304,VALID,0,VALID,19.7223,VALID,23,VALID,0,
2011-12-15, 02:07:04,VALID,915.775,VALID,0,VALID,97.9304,VALID,0,VALID,19.7028,VALID,23,VALID,0,
2011-12-15, 02:08:04,VALID,915.771,VALID,0,VALID,97.9228,VALID,0,VALID,19.7223,VALID,23,VALID,0,
2011-12-15, 02:09:04,VALID,915.779,VALID,0,VALID,97.9456,VALID,0,VALID,19.7418,VALID,23,VALID,0,
2011-12-15, 02:10:04,VALID,915.74,VALID,0,VALID,97.9685,VALID,0,VALID,19.7628,VALID,23,VALID,0,
2011-12-15, 02:11:04,VALID,915.74,VALID,0,VALID,97.9533,VALID,0,VALID,19.7613,VALID,23,VALID,0,
2011-12-15, 02:12:04,VALID,915.704,VALID,0,VALID,97.9609,VALID,0,VALID,19.7808,VALID,23,VALID,0,
2011-12-15, 02:13:04,VALID,915.724,VALID,0,VALID,97.9304,VALID,0,VALID,19.7613,VALID,23,VALID,0,
2011-12-15, 02:14:04,VALID,915.68,VALID,0,VALID,97.9533,VALID,0,VALID,19.7808,VALID,23,VALID,0,
2011-12-15, 02:15:04,VALID,915.656,VALID,0,VALID,97.9304,VALID,0,VALID,19.7808,VALID,23,VALID,0,
2011-12-15, 02:16:04,VALID,915.633,VALID,0,VALID,97.9533,VALID,0,VALID,19.7613,VALID,23,VALID,0,
2011-12-15, 02:17:04,VALID,915.609,VALID,0,VALID,97.938,VALID,0,VALID,19.7808,VALID,23,VALID,0,
2011-12-15, 02:18:04,VALID,915.613,VALID,0,VALID,97.9456,VALID,0,VALID,19.8003,VALID,23,VALID,0,
2011-12-15, 02:19:04,VALID,915.608,VALID,0,VALID,97.9533,VALID,0,VALID,19.8018,VALID,23,VALID,0,
2011-12-15, 02:20:04,VALID,915.573,VALID,0,VALID,97.9609,VALID,0,VALID,19.8003,VALID,23,VALID,0,
2011-12-15, 02:21:04,VALID,915.595,VALID,0,VALID,97.9609,VALID,0,VALID,19.8213,VALID,23,VALID,0,
2011-12-15, 02:22:04,VALID,915.577,VALID,0,VALID,97.9609,VALID,0,VALID,19.8198,VALID,23,VALID,0,
2011-12-15, 02:23:04,VALID,915.564,VALID,0,VALID,97.9609,VALID,0,VALID,19.8393,VALID,23,VALID,0,
2011-12-15, 02:24:04,VALID,915.551,VALID,0,VALID,97.9456,VALID,0,VALID,19.8393,VALID,23,VALID,0,
2011-12-15, 02:25:04,VALID,915.521,VALID,0,VALID,97.9533,VALID,0,VALID,19.8603,VALID,23,VALID,0,
2011-12-15, 02:26:04,VALID,915.504,VALID,0,VALID,97.9761,VALID,0,VALID,19.8588,VALID,23,VALID,0,
2011-12-15, 02:27:04,VALID,915.464,VALID,0,VALID,97.9838,VALID,0,VALID,19.8783,VALID,23,VALID,0,
2011-12-15, 02:28:04,VALID,915.468,VALID,0,VALID,97.9761,VALID,0,VALID,19.8978,VALID,23,VALID,0,
2011-12-15, 02:29:04,VALID,915.472,VALID,0,VALID,97.9685,VALID,0,VALID,19.8978,VALID,23,VALID,0,
2011-12-15, 02:30:04,VALID,915.469,VALID,0,VALID,97.9838,VALID,0,VALID,19.9368,VALID,23,VALID,0,
2011-12-15, 02:31:04,VALID,915.437,VALID,0,VALID,97.9456,VALID,0,VALID,19.9383,VALID,23,VALID,0,
2011-12-15, 02:32:04,VALID,915.481,VALID,0,VALID,97.9609,VALID,0,VALID,19.9368,VALID,23,VALID,0,
2011-12-15, 02:33:04,VALID,915.458,VALID,0,VALID,97.9761,VALID,0,VALID,19.9758,VALID,23,VALID,0,
2011-12-15, 02:34:04,VALID,915.481,VALID,0,VALID,97.9761,VALID,0,VALID,19.9938,VALID,23,VALID,0,
2011-12-15, 02:35:04,VALID,915.469,VALID,0,VALID,97.999,VALID,0.107441,VALID,20.0148,VALID,23,VALID,0,
2011-12-15, 02:36:04,VALID,915.467,VALID,0,VALID,97.9838,VALID,0,VALID,20.0328,VALID,23,VALID,0,
2011-12-15, 02:37:04,VALID,915.445,VALID,0,VALID,97.9838,VALID,0.107441,VALID,20.0718,VALID,23,VALID,0,
2011-12-15, 02:38:04,VALID,915.463,VALID,0,VALID,97.9838,VALID,0.107441,VALID,20.0523,VALID,23,VALID,0,
2011-12-15, 02:39:04,VALID,915.416,VALID,0,VALID,97.9228,VALID,0,VALID,20.0928,VALID,23,VALID,0,
2011-12-15, 02:40:04,VALID,915.417,VALID,0,VALID,97.9761,VALID,0,VALID,20.0913,VALID,23,VALID,0,
2011-12-15, 02:41:04,VALID,915.427,VALID,0,VALID,97.9304,VALID,0,VALID,20.0928,VALID,23,VALID,0,
2011-12-15, 02:42:04,VALID,915.396,VALID,0,VALID,97.9533,VALID,0,VALID,20.0913,VALID,23,VALID,0,
2011-12-15, 02:43:04,VALID,915.385,VALID,0,VALID,97.938,VALID,0,VALID,20.1123,VALID,23,VALID,0,
2011-12-15, 02:44:04,VALID,915.38,VALID,0,VALID,97.8618,VALID,0,VALID,20.0913,VALID,23,VALID,0.657031,
2011-12-15, 02:45:04,VALID,915.366,VALID,0,VALID,97.9152,VALID,0,VALID,20.0718,VALID,23,VALID,0.701563,
2011-12-15, 02:46:04,VALID,915.365,VALID,0,VALID,97.9075,VALID,0,VALID,20.0718,VALID,23,VALID,0.602344,
2011-12-15, 02:47:04,VALID,915.385,VALID,0,VALID,97.877,VALID,0,VALID,20.0928,VALID,23,VALID,0.620703,
2011-12-15, 02:48:04,VALID,915.357,VALID,0,VALID,97.9609,VALID,0,VALID,20.0913,VALID,23,VALID,0.619922,
2011-12-15, 02:49:04,VALID,915.344,VALID,0,VALID,97.9228,VALID,0,VALID,20.0913,VALID,23,VALID,0.324609,
2011-12-15, 02:50:04,VALID,915.336,VALID,0,VALID,97.938,VALID,0,VALID,20.1108,VALID,23,VALID,0.516406,
2011-12-15, 02:51:04,VALID,915.399,VALID,0,VALID,97.8923,VALID,0,VALID,20.0913,VALID,23,VALID,0.491797,
2011-12-15, 02:52:04,VALID,915.377,VALID,0,VALID,97.8999,VALID,0,VALID,20.1123,VALID,23,VALID,0.285156,
2011-12-15, 02:53:04,VALID,915.343,VALID,0,VALID,97.8542,VALID,0,VALID,20.0913,VALID,23,VALID,0.638281,
2011-12-15, 02:54:04,VALID,915.358,VALID,0,VALID,97.8923,VALID,0,VALID,20.0328,VALID,23,VALID,0.60625,
2011-12-15, 02:55:04,VALID,915.306,VALID,0,VALID,97.8847,VALID,0,VALID,20.0523,VALID,23,VALID,0.818359,
2011-12-15, 02:56:04,VALID,915.321,VALID,0,VALID,97.9075,VALID,0,VALID,20.0118,VALID,23,VALID,0.749219,
2011-12-15, 02:57:04,VALID,915.339,VALID,0,VALID,97.9152,VALID,0.107441,VALID,20.0328,VALID,23,VALID,0.567578,
2011-12-15, 02:58:04,VALID,915.318,VALID,0,VALID,97.9228,VALID,0,VALID,20.0523,VALID,23,VALID,0.764453,
2011-12-15, 02:59:04,VALID,915.318,VALID,0,VALID,97.9456,VALID,0,VALID,20.0718,VALID,22,VALID,0.698828,
2011-12-15, 03:00:04,VALID,915.332,VALID,0,VALID,97.9533,VALID,0,VALID,20.0913,VALID,22,VALID,0.155469,
2011-12-15, 03:01:04,VALID,915.314,VALID,0,VALID,97.938,VALID,0,VALID,20.1108,VALID,23,VALID,0.894922,
2011-12-15, 03:02:04,VALID,915.292,VALID,0,VALID,97.9228,VALID,0,VALID,20.0913,VALID,22,VALID,0.748438,
2011-12-15, 03:03:04,VALID,915.3,VALID,0,VALID,97.8465,VALID,0,VALID,20.0523,VALID,14,VALID,1.20195,
2011-12-15, 03:04:04,VALID,915.279,VALID,0,VALID,97.9075,VALID,0,VALID,20.0328,VALID,10,VALID,0.723047,
2011-12-15, 03:05:04,VALID,915.257,VALID,0,VALID,97.877,VALID,0,VALID,20.0343,VALID,10,VALID,0.516797,
2011-12-15, 03:06:04,VALID,915.227,VALID,0,VALID,97.9228,VALID,0,VALID,20.0328,VALID,10,VALID,0.989844,
2011-12-15, 03:07:04,VALID,915.242,VALID,0,VALID,97.9304,VALID,0,VALID,20.0523,VALID,10,VALID,0.661328,
2011-12-15, 03:08:04,VALID,915.222,VALID,0,VALID,97.9685,VALID,0,VALID,20.0523,VALID,10,VALID,0.554297,
2011-12-15, 03:09:04,VALID,915.218,VALID,0,VALID,97.9304,VALID,0,VALID,20.0718,VALID,10,VALID,0.958203,
2011-12-15, 03:10:04,VALID,915.21,VALID,0,VALID,97.9456,VALID,0,VALID,20.0718,VALID,10,VALID,0.820703,
2011-12-15, 03:11:04,VALID,915.186,VALID,0,VALID,97.9304,VALID,0,VALID,20.0928,VALID,10,VALID,0.998047,
2011-12-15, 03:12:04,VALID,915.173,VALID,0,VALID,97.938,VALID,0,VALID,20.0913,VALID,10,VALID,0.708594,
2011-12-15, 03:13:04,VALID,915.173,VALID,0,VALID,97.9609,VALID,0,VALID,20.1108,VALID,10,VALID,0.391797,
2011-12-15, 03:14:04,VALID,915.178,VALID,0,VALID,97.9456,VALID,0,VALID,20.1108,VALID,10,VALID,0.775781,
2011-12-15, 03:15:04,VALID,915.149,VALID,0,VALID,97.9228,VALID,0,VALID,20.0718,VALID,10,VALID,1.00625,
2011-12-15, 03:16:04,VALID,915.138,VALID,0,VALID,97.9304,VALID,0,VALID,20.0703,VALID,10,VALID,0.903125,
2011-12-15, 03:17:04,VALID,915.133,VALID,0,VALID,97.9533,VALID,0,VALID,20.0913,VALID,27,VALID,1.15,
2011-12-15, 03:18:04,VALID,915.103,VALID,0,VALID,97.8999,VALID,0,VALID,20.0538,VALID,6,VALID,1.40313,
2011-12-15, 03:19:04,VALID,915.111,VALID,0,VALID,97.9075,VALID,0,VALID,20.0538,VALID,354,VALID,1.02773,
2011-12-15, 03:20:04,VALID,915.108,VALID,0,VALID,97.8847,VALID,0,VALID,20.0553,VALID,351,VALID,0.732422,
2011-12-15, 03:21:04,VALID,915.073,VALID,0,VALID,97.8847,VALID,0,VALID,20.0148,VALID,27,VALID,1.13398,
2011-12-15, 03:22:04,VALID,915.079,VALID,0,VALID,97.8847,VALID,0,VALID,19.9758,VALID,27,VALID,0.752344,
2011-12-15, 03:23:04,VALID,915.095,VALID,0,VALID,97.9609,VALID,0,VALID,19.9953,VALID,27,VALID,0.898828,
2011-12-15, 03:24:04,VALID,915.076,VALID,0,VALID,97.999,VALID,0,VALID,20.0343,VALID,27,VALID,0.773047,
2011-12-15, 03:25:04,VALID,915.079,VALID,0,VALID,97.9685,VALID,0,VALID,20.0733,VALID,27,VALID,1.03203,
2011-12-15, 03:26:04,VALID,915.059,VALID,0,VALID,97.8923,VALID,0,VALID,20.0343,VALID,27,VALID,1.26016,
2011-12-15, 03:27:04,VALID,915.047,VALID,0,VALID,97.9609,VALID,0,VALID,20.0343,VALID,27,VALID,1.24688,
2011-12-15, 03:28:04,VALID,915.077,VALID,0,VALID,97.9456,VALID,0,VALID,20.0538,VALID,27,VALID,0.954297,
2011-12-15, 03:29:04,VALID,915.084,VALID,0,VALID,97.877,VALID,0,VALID,20.0148,VALID,26,VALID,1.14297,
2011-12-15, 03:30:04,VALID,915.059,VALID,0,VALID,97.8999,VALID,0,VALID,19.9953,VALID,16,VALID,1.41211,
2011-12-15, 03:31:04,VALID,915.078,VALID,0,VALID,97.9304,VALID,0,VALID,19.9758,VALID,358,VALID,1.56367,
2011-12-15, 03:32:04,VALID,915.121,VALID,0,VALID,97.9456,VALID,0,VALID,19.9758,VALID,15,VALID,1.05742,
2011-12-15, 03:33:04,VALID,915.119,VALID,0,VALID,97.8847,VALID,0,VALID,19.9353,VALID,26,VALID,1.86602,
2011-12-15, 03:34:04,VALID,915.11,VALID,0,VALID,97.9685,VALID,0.107441,VALID,19.9548,VALID,12,VALID,1.22773,
2011-12-15, 03:35:04,VALID,915.168,VALID,0,VALID,97.9152,VALID,0,VALID,19.9548,VALID,339,VALID,1.67539,
2011-12-15, 03:36:04,VALID,915.134,VALID,0,VALID,97.9075,VALID,0,VALID,19.9158,VALID,2,VALID,1.36289,
2011-12-15, 03:37:04,VALID,915.167,VALID,0,VALID,97.9761,VALID,0,VALID,19.9158,VALID,6,VALID,1.34375,
2011-12-15, 03:38:04,VALID,915.147,VALID,0,VALID,97.9533,VALID,0.107441,VALID,19.9353,VALID,12,VALID,0.958984,
2011-12-15, 03:39:04,VALID,915.155,VALID,0,VALID,97.9533,VALID,0,VALID,19.9563,VALID,23,VALID,1.50273,
2011-12-15, 03:40:04,VALID,915.149,VALID,0,VALID,97.9152,VALID,0,VALID,19.9158,VALID,318,VALID,1.33477,
2011-12-15, 03:41:04,VALID,915.155,VALID,0,VALID,97.9609,VALID,0,VALID,19.8963,VALID,5,VALID,1.03164,
2011-12-15, 03:42:04,VALID,915.182,VALID,0,VALID,97.9914,VALID,0.107441,VALID,19.9158,VALID,5,VALID,0.844531,
2011-12-15, 03:43:04,VALID,915.181,VALID,0,VALID,97.9914,VALID,0.107441,VALID,19.9548,VALID,5,VALID,0.00585938,
2011-12-15, 03:44:04,VALID,915.19,VALID,0,VALID,98.0143,VALID,0,VALID,19.9548,VALID,5,VALID,0.0554687,
2011-12-15, 03:45:04,VALID,915.173,VALID,0,VALID,97.9914,VALID,0,VALID,19.9548,VALID,5,VALID,0.314063,
2011-12-15, 03:46:04,VALID,915.221,VALID,0,VALID,97.9609,VALID,0.107441,VALID,19.9548,VALID,5,VALID,0.684375,
2011-12-15, 03:47:04,VALID,915.197,VALID,0,VALID,97.9533,VALID,0,VALID,19.9563,VALID,359,VALID,1.11094,
2011-12-15, 03:48:04,VALID,915.191,VALID,0,VALID,97.9609,VALID,0,VALID,19.9158,VALID,12,VALID,0.985547,
2011-12-15, 03:49:04,VALID,915.193,VALID,0,VALID,98.0219,VALID,0,VALID,19.9548,VALID,12,VALID,0.857031,
2011-12-15, 03:50:04,VALID,915.241,VALID,0,VALID,98.0295,VALID,0,VALID,19.9743,VALID,12,VALID,0.251953,
2011-12-15, 03:51:04,VALID,915.214,VALID,0,VALID,98.0219,VALID,0,VALID,19.9728,VALID,12,VALID,0.503516,
2011-12-15, 03:52:04,VALID,915.208,VALID,0,VALID,98.0371,VALID,0.107441,VALID,20.0328,VALID,12,VALID,0.650391,